Location: Ertinghausen
(51.6624°N, 9.7874°E)
Time: 20:35:24
(UTC+00:00)

CZ-2C R/B - Pass Details

Date: 21 August 2024
Orbit: 703 x 904 km, 98.2° (Epoch: 07 September)

Event Time Altitude Azimuth Distance (km) Brightness Sun altitude
Rises 01:32:04 0° 14° (NNE) 3,263 7.5 -20.6°
Reaches altitude 10° 01:34:20 10° 14° (NNE) 2,360 6.6 -20.4°
Maximum altitude 01:39:35 89° 291° (WNW) 828 3.1 -19.9°
Enters shadow 01:41:56 36° 197° (SSW) 1,301 3.7 -19.7°
